Address 0x1fca46026076a540f314804b9816270e8403a348 1

 
 
Txn Hash Method
Block
From
To
Value [Txn Fee]
0x21e0b47339e93aa6ad0ae4f9031790892585526ae54d9cb6ce3e49df24076836Buy And Free2245...112011492021-09-24 18:51:0347 secs ago0x1fca46026076a540f314804b9816270e8403a348OUT 0xa2ca4fb5abb7c2d9a61ca75ee28de89ab8d8c1780 BNB0.000168555
0xfa4e6d38d2e99c5ca15db75ad2b07b19b475e1e387feb1ce7e125cf2240c0045Buy And Free2245...112010392021-09-24 18:45:336 mins ago0x1fca46026076a540f314804b9816270e8403a348OUT 0xa2ca4fb5abb7c2d9a61ca75ee28de89ab8d8c1780 BNB0.000168765
0x1520942a56d7f5f65848e57605d11737b69dfdb38a3bcc71816a97201ced06b3Buy And Free2245...112010252021-09-24 18:44:516 mins ago0x1fca46026076a540f314804b9816270e8403a348OUT 0xa2ca4fb5abb7c2d9a61ca75ee28de89ab8d8c1780 BNB0.00104582748
0x3ddaee211d43a20440c35790af9bf0d26829d04d7f9bc3bb38a3d77534061f64Buy And Free2245...112009302021-09-24 18:40:0611 mins ago0x1fca46026076a540f314804b9816270e8403a348OUT 0xa2ca4fb5abb7c2d9a61ca75ee28de89ab8d8c1780 BNB0.0001512
0x5790293812e27ab72c528cea9203331891989418ae7fbdbf87871b035f88dfadBuy And Free2245...112008722021-09-24 18:37:1214 mins ago0x1fca46026076a540f314804b9816270e8403a348OUT 0xa2ca4fb5abb7c2d9a61ca75ee28de89ab8d8c1780 BNB0.000150655
0x6fe1bb9ae1d04aa2de4e8b48ac54b8b6efc3dd7c7cd8b4bd5a0d35c26d242181Buy And Free2245...112006332021-09-24 18:25:1526 mins ago0x1fca46026076a540f314804b9816270e8403a348OUT 0xa2ca4fb5abb7c2d9a61ca75ee28de89ab8d8c1780 BNB0.00098279
0x1ae24d5de8be600a8e696c13afd40a2cac5f19d717b876b5cade9981aabf20a0Buy And Free2245...112005942021-09-24 18:23:1828 mins ago0x1fca46026076a540f314804b9816270e8403a348OUT 0xa2ca4fb5abb7c2d9a61ca75ee28de89ab8d8c1780 BNB0.000151558022
0xa7d161a2e399f9a26e58117db40a0e30adab4765eb9debf7467d9e73dbf7b5feBuy And Free2245...112005382021-09-24 18:20:3031 mins ago0x1fca46026076a540f314804b9816270e8403a348OUT 0xa2ca4fb5abb7c2d9a61ca75ee28de89ab8d8c1780 BNB0.000271431
0x18fa37a4f7df1f6fcc10f3adc9ea798fd826f4750f1cf8ffc38f2b8488c27c7bBuy And Free2245...112004912021-09-24 18:18:0933 mins ago0x1fca46026076a540f314804b9816270e8403a348OUT 0xa2ca4fb5abb7c2d9a61ca75ee28de89ab8d8c1780 BNB0.000191586
0xc7b23ef4cc9c9a5b4ecaa7eac68cdbe9385b2345562d225395ae7f651578a27fBuy And Free2245...112004602021-09-24 18:16:3635 mins ago0x1fca46026076a540f314804b9816270e8403a348OUT 0xa2ca4fb5abb7c2d9a61ca75ee28de89ab8d8c1780 BNB0.000256
0x21ca8e71b9d7f5bfbea7ddec37f3dce39a5f3a534de9373f652b8bbb9c4f1972Buy And Free2245...112004572021-09-24 18:16:2735 mins ago0x1fca46026076a540f314804b9816270e8403a348OUT 0xa2ca4fb5abb7c2d9a61ca75ee28de89ab8d8c1780 BNB0.001506862
0xf6b9cd693084e84d52c83bf9f54bb4466cd5e423b90fcf79c9e72fb2b9b7b28bBuy And Free2245...112004402021-09-24 18:15:3636 mins ago0x1fca46026076a540f314804b9816270e8403a348OUT 0xa2ca4fb5abb7c2d9a61ca75ee28de89ab8d8c1780 BNB0.0001573146
0x644c4b894039a6a352f198345b822402a727fbbe3c4dc7caa1e9f449f5afd728Buy And Free2245...112004202021-09-24 18:14:3637 mins ago0x1fca46026076a540f314804b9816270e8403a348OUT 0xa2ca4fb5abb7c2d9a61ca75ee28de89ab8d8c1780 BNB0.000168845
0xa6d543ddfc1dd7cdf5a9c8322b487373f7b05749a72f8a97ba6ffb216d379261Buy And Free2245...112003922021-09-24 18:13:1238 mins ago0x1fca46026076a540f314804b9816270e8403a348OUT 0xa2ca4fb5abb7c2d9a61ca75ee28de89ab8d8c1780 BNB0.000159595
0x89c14914c70f61b12ea771df10741a8f6318dc128a18ccd2cda7661bb83a98fdBuy And Free2245...112003202021-09-24 18:09:2442 mins ago0x1fca46026076a540f314804b9816270e8403a348OUT 0xa2ca4fb5abb7c2d9a61ca75ee28de89ab8d8c1780 BNB0.00117671
0xb35154a080cbf0e7fac9670f4c7e5f82d71d33e39f57c2b236602c179aeac985Buy And Free2245...112002572021-09-24 18:06:0845 mins ago0x1fca46026076a540f314804b9816270e8403a348OUT 0xa2ca4fb5abb7c2d9a61ca75ee28de89ab8d8c1780 BNB0.000151558022
0x8bca74767a7a717c485c3adf213b84dd2e9ef9afbce0f93c288bdda8dc43a872Buy And Free2245...112000612021-09-24 17:56:2055 mins ago0x1fca46026076a540f314804b9816270e8403a348OUT 0xa2ca4fb5abb7c2d9a61ca75ee28de89ab8d8c1780 BNB0.000177725
0x18bc92ac88f583776e4e080121b0ce0d17e87639a3eacf79260748e76c434a6cBuy And Free2245...112000392021-09-24 17:55:1456 mins ago0x1fca46026076a540f314804b9816270e8403a348OUT 0xa2ca4fb5abb7c2d9a61ca75ee28de89ab8d8c1780 BNB0.000438087
0x797e98a6a7bfe9ad530cc4275dcc54a0b3e9a1429165bdedf0e580795a577fffBuy And Free2245...112000242021-09-24 17:54:2957 mins ago0x1fca46026076a540f314804b9816270e8403a348OUT 0xa2ca4fb5abb7c2d9a61ca75ee28de89ab8d8c1780 BNB0.000159675
0xe50ae0ad773dd9467a29db1886b284effc079c6eed7774bd3011310760aa2fc6Buy And Free2245...112000072021-09-24 17:53:3858 mins ago0x1fca46026076a540f314804b9816270e8403a348OUT 0xa2ca4fb5abb7c2d9a61ca75ee28de89ab8d8c1780 BNB0.001356474
0xa09a0309ac2982e4182a47da6ede6ee8031ef2df110822891f01b27048042852Buy And Free2245...112000022021-09-24 17:53:2358 mins ago0x1fca46026076a540f314804b9816270e8403a348OUT 0xa2ca4fb5abb7c2d9a61ca75ee28de89ab8d8c1780 BNB0.000145235
0xe29d1ecc41ff1abcec722ceb23cc4f3bb357fbda0c714f60b3b161449b1a87a9Buy And Free2245...111999572021-09-24 17:51:081 hr ago0x1fca46026076a540f314804b9816270e8403a348OUT 0xa2ca4fb5abb7c2d9a61ca75ee28de89ab8d8c1780 BNB0.000151497719
0x23c9d0d3f59e67ebe5a3faa97afc829397bee81a53392f30634a8b4d27d11086Buy And Free2245...111999472021-09-24 17:50:381 hr 1 min ago0x1fca46026076a540f314804b9816270e8403a348OUT 0xa2ca4fb5abb7c2d9a61ca75ee28de89ab8d8c1780 BNB0.000160774422
0x317fd14072e8ae518b76bc4e7155b37ea4e65e14d1a0df4176c824ed1d0eaf37Buy And Free2245...111998892021-09-24 17:47:441 hr 4 mins ago0x1fca46026076a540f314804b9816270e8403a348OUT 0xa2ca4fb5abb7c2d9a61ca75ee28de89ab8d8c1780 BNB0.00016882
0x67c5a9c2ec7f5056cce87a921dddd56439c59ae3a5a5abd963fa40c286fdc5e6Buy And Free2245...111998602021-09-24 17:46:171 hr 5 mins ago0x1fca46026076a540f314804b9816270e8403a348OUT 0xa2ca4fb5abb7c2d9a61ca75ee28de89ab8d8c1780 BNB0.000168495
[ Download CSV Export 
Parent Txn Hash Block From To Value
Loading

Contract Name:
0 BNB

Compiler Version
0

Optimization Enabled:
0 BNB

Other Settings:
-NA-
Block Transaction Gas Used Reward
Age Block Fee Address BC Fee Address Voting Power Jailed Incoming
Block Uncle Number Difficulty Gas Used Reward
Loading
Loading
Make sure to use the "Vote Down" button for any spammy posts, and the "Vote Up" for interesting conversations.